Time,TemperatureF,DewpointF,PressureIn,WindDirection,WindDirectionDegrees,WindSpeedMPH,WindSpeedGustMPH,Humidity,HourlyPrecipIn,Conditions,Clouds,dailyrainin,SoftwareType,DateUTC
2013-01-12 00:02:00,40.0,38.0,29.32,SSW,211,1.0,2.0,94,0.00,,,0.00,Meteo,2013-01-12 06:02:00,
2013-01-12 00:07:00,40.0,38.0,29.32,SSW,212,0.0,1.0,94,0.00,,,0.00,Meteo,2013-01-12 06:07:00,
2013-01-12 00:12:00,40.0,38.0,29.31,North,0,0.0,0.0,94,0.00,,,0.00,Meteo,2013-01-12 06:12:00,
2013-01-12 00:17:00,39.0,37.0,29.31,SE,146,1.0,2.0,94,0.00,,,0.00,Meteo,2013-01-12 06:17:00,
2013-01-12 00:22:00,39.0,37.0,29.31,SSE,165,3.0,5.0,94,0.00,,,0.00,Meteo,2013-01-12 06:22:00,
2013-01-12 00:27:00,40.0,38.0,29.30,South,172,2.0,3.0,94,0.00,,,0.00,Meteo,2013-01-12 06:27:00,
2013-01-12 00:32:00,40.0,38.0,29.31,South,177,1.0,3.0,94,0.00,,,0.00,Meteo,2013-01-12 06:32:00,
2013-01-12 00:37:00,41.0,40.0,29.30,South,186,1.0,3.0,95,0.00,,,0.00,Meteo,2013-01-12 06:37:00,
2013-01-12 00:42:00,41.0,40.0,29.30,South,186,2.0,3.0,95,0.00,,,0.00,Meteo,2013-01-12 06:42:00,
2013-01-12 00:47:00,41.0,40.0,29.30,South,182,2.0,3.0,95,0.00,,,0.00,Meteo,2013-01-12 06:47:00,
2013-01-12 00:52:00,41.0,39.0,29.30,SSE,166,1.0,2.0,94,0.00,,,0.00,Meteo,2013-01-12 06:52:00,
2013-01-12 00:57:00,41.0,39.0,29.30,SSW,192,1.0,3.0,94,0.00,,,0.00,Meteo,2013-01-12 06:57:00,
2013-01-12 01:02:00,41.0,39.0,29.30,South,172,2.0,3.0,94,0.00,,,0.00,Meteo,2013-01-12 07:02:00,
2013-01-12 01:07:00,41.0,39.0,29.29,SSE,166,2.0,3.0,94,0.00,,,0.00,Meteo,2013-01-12 07:07:00,
2013-01-12 01:12:00,41.0,39.0,29.29,SSE,160,2.0,5.0,94,0.00,,,0.00,Meteo,2013-01-12 07:12:00,
2013-01-12 01:17:00,41.0,39.0,29.29,South,173,2.0,3.0,94,0.00,,,0.00,Meteo,2013-01-12 07:17:00,
2013-01-12 01:22:00,42.0,40.0,29.29,South,184,3.0,4.0,94,0.00,,,0.00,Meteo,2013-01-12 07:22:00,
2013-01-12 01:27:00,42.0,40.0,29.29,South,174,4.0,5.0,94,0.00,,,0.00,Meteo,2013-01-12 07:27:00,
2013-01-12 01:32:00,42.0,40.0,29.30,South,179,3.0,5.0,94,0.00,,,0.00,Meteo,2013-01-12 07:32:00,
2013-01-12 01:37:00,42.0,40.0,29.30,South,173,2.0,3.0,94,0.00,,,0.00,Meteo,2013-01-12 07:37:00,
2013-01-12 01:42:00,42.0,40.0,29.29,SSW,208,1.0,2.0,94,0.00,,,0.00,Meteo,2013-01-12 07:42:00,
2013-01-12 01:47:00,42.0,40.0,29.29,South,185,4.0,6.0,94,0.00,,,0.00,Meteo,2013-01-12 07:47:00,
2013-01-12 01:52:00,42.0,40.0,29.29,South,180,3.0,6.0,94,0.00,,,0.00,Meteo,2013-01-12 07:52:00,
2013-01-12 01:57:00,42.0,40.0,29.29,South,172,3.0,6.0,94,0.00,,,0.00,Meteo,2013-01-12 07:57:00,
2013-01-12 02:02:00,42.0,40.0,29.29,South,175,2.0,4.0,94,0.00,,,0.00,Meteo,2013-01-12 08:02:00,
2013-01-12 02:07:00,42.0,40.0,29.29,SSE,158,2.0,4.0,94,0.00,,,0.00,Meteo,2013-01-12 08:07:00,
2013-01-12 02:12:00,42.0,40.0,29.29,South,176,3.0,6.0,93,0.00,,,0.00,Meteo,2013-01-12 08:12:00,
2013-01-12 02:17:00,42.0,40.0,29.29,South,175,2.0,5.0,94,0.00,,,0.00,Meteo,2013-01-12 08:17:00,
2013-01-12 02:22:00,42.0,40.0,29.29,South,182,1.0,3.0,94,0.00,,,0.00,Meteo,2013-01-12 08:22:00,
2013-01-12 02:27:00,42.0,40.0,29.29,South,175,1.0,2.0,93,0.00,,,0.00,Meteo,2013-01-12 08:27:00,
2013-01-12 02:32:00,42.0,40.0,29.29,SSW,200,2.0,4.0,93,0.00,,,0.00,Meteo,2013-01-12 08:32:00,
2013-01-12 02:38:00,42.0,40.0,29.29,South,188,2.0,3.0,93,0.00,,,0.00,Meteo,2013-01-12 08:38:00,
2013-01-12 02:43:00,42.0,40.0,29.29,SSW,193,1.0,2.0,93,0.00,,,0.00,Meteo,2013-01-12 08:43:00,
2013-01-12 02:48:00,42.0,40.0,29.29,SSW,209,3.0,4.0,93,0.00,,,0.00,Meteo,2013-01-12 08:48:00,
2013-01-12 02:53:00,42.0,40.0,29.29,SSW,213,2.0,4.0,93,0.00,,,0.00,Meteo,2013-01-12 08:53:00,
2013-01-12 02:58:00,42.0,40.0,29.29,South,187,2.0,3.0,93,0.00,,,0.00,Meteo,2013-01-12 08:58:00,
2013-01-12 03:03:00,42.0,40.0,29.29,SSW,211,3.0,5.0,93,0.00,,,0.00,Meteo,2013-01-12 09:03:00,
2013-01-12 03:08:00,42.0,40.0,29.28,SSW,205,3.0,6.0,93,0.00,,,0.00,Meteo,2013-01-12 09:08:00,
2013-01-12 03:13:00,42.0,40.0,29.28,SSW,201,3.0,5.0,92,0.00,,,0.00,Meteo,2013-01-12 09:13:00,
2013-01-12 03:18:00,42.0,40.0,29.29,South,189,7.0,11.0,91,0.00,,,0.00,Meteo,2013-01-12 09:18:00,
2013-01-12 03:23:00,42.0,39.0,29.29,SSW,213,7.0,11.0,89,0.00,,,0.00,Meteo,2013-01-12 09:23:00,
2013-01-12 03:28:00,42.0,39.0,29.28,SSW,211,6.0,9.0,88,0.00,,,0.00,Meteo,2013-01-12 09:28:00,
2013-01-12 03:33:00,42.0,38.0,29.29,SSW,212,5.0,11.0,86,0.00,,,0.00,Meteo,2013-01-12 09:33:00,
2013-01-12 03:38:00,42.0,38.0,29.29,SSW,201,5.0,7.0,85,0.00,,,0.00,Meteo,2013-01-12 09:38:00,
2013-01-12 03:43:00,42.0,38.0,29.29,SSW,200,6.0,10.0,84,0.00,,,0.00,Meteo,2013-01-12 09:43:00,
2013-01-12 03:48:00,41.0,36.0,29.29,SSW,197,6.0,8.0,83,0.00,,,0.00,Meteo,2013-01-12 09:48:00,
2013-01-12 03:53:00,41.0,36.0,29.29,SSW,199,7.0,11.0,83,0.00,,,0.00,Meteo,2013-01-12 09:53:00,
2013-01-12 03:58:00,41.0,36.0,29.28,SSW,197,5.0,7.0,83,0.00,,,0.00,Meteo,2013-01-12 09:58:00,
2013-01-12 04:03:00,41.0,36.0,29.28,SSW,198,8.0,14.0,83,0.00,,,0.00,Meteo,2013-01-12 10:03:00,
2013-01-12 04:08:00,41.0,37.0,29.28,SSW,198,7.0,15.0,84,0.00,,,0.00,Meteo,2013-01-12 10:08:00,
2013-01-12 04:13:00,41.0,37.0,29.28,SW,214,5.0,9.0,84,0.00,,,0.00,Meteo,2013-01-12 10:13:00,
2013-01-12 04:18:00,41.0,36.0,29.28,SSW,194,8.0,12.0,83,0.00,,,0.00,Meteo,2013-01-12 10:18:00,
2013-01-12 04:23:00,41.0,36.0,29.28,South,191,5.0,10.0,83,0.00,,,0.00,Meteo,2013-01-12 10:23:00,
2013-01-12 04:28:00,40.0,35.0,29.28,SSW,197,8.0,12.0,82,0.00,,,0.00,Meteo,2013-01-12 10:28:00,
2013-01-12 04:33:00,40.0,35.0,29.28,SSW,206,6.0,10.0,81,0.00,,,0.00,Meteo,2013-01-12 10:33:00,
2013-01-12 04:38:00,40.0,34.0,29.28,SSW,205,5.0,8.0,80,0.00,,,0.00,Meteo,2013-01-12 10:38:00,
2013-01-12 04:43:00,40.0,34.0,29.28,SSW,201,5.0,8.0,80,0.00,,,0.00,Meteo,2013-01-12 10:43:00,
2013-01-12 04:48:00,40.0,34.0,29.29,SSW,203,4.0,8.0,79,0.00,,,0.00,Meteo,2013-01-12 10:48:00,
2013-01-12 04:53:00,40.0,34.0,29.29,SSW,195,6.0,8.0,79,0.00,,,0.00,Meteo,2013-01-12 10:53:00,
2013-01-12 04:58:00,40.0,34.0,29.29,South,188,9.0,14.0,78,0.00,,,0.00,Meteo,2013-01-12 10:58:00,
2013-01-12 05:03:00,40.0,34.0,29.29,SSW,203,7.0,15.0,79,0.00,,,0.00,Meteo,2013-01-12 11:03:00,
2013-01-12 05:08:00,40.0,34.0,29.30,SSW,207,8.0,12.0,78,0.00,,,0.00,Meteo,2013-01-12 11:08:00,
2013-01-12 05:13:00,40.0,34.0,29.30,SSW,194,5.0,7.0,78,0.00,,,0.00,Meteo,2013-01-12 11:13:00,
2013-01-12 05:18:00,40.0,34.0,29.30,SSW,200,5.0,10.0,78,0.00,,,0.00,Meteo,2013-01-12 11:18:00,
2013-01-12 05:23:00,40.0,34.0,29.30,SSW,205,4.0,6.0,78,0.00,,,0.00,Meteo,2013-01-12 11:23:00,
2013-01-12 05:28:00,40.0,34.0,29.31,SSW,195,6.0,13.0,78,0.00,,,0.00,Meteo,2013-01-12 11:28:00,
2013-01-12 05:33:00,39.0,33.0,29.31,SSW,197,8.0,13.0,79,0.00,,,0.00,Meteo,2013-01-12 11:33:00,
2013-01-12 05:38:00,39.0,33.0,29.31,SSW,198,5.0,9.0,79,0.00,,,0.00,Meteo,2013-01-12 11:38:00,
2013-01-12 05:43:00,39.0,33.0,29.31,SSW,211,7.0,12.0,79,0.00,,,0.00,Meteo,2013-01-12 11:43:00,
2013-01-12 05:48:00,39.0,33.0,29.31,SSW,210,6.0,11.0,79,0.00,,,0.00,Meteo,2013-01-12 11:48:00,
2013-01-12 05:53:00,39.0,33.0,29.32,South,190,7.0,13.0,80,0.00,,,0.00,Meteo,2013-01-12 11:53:00,
2013-01-12 05:58:00,39.0,33.0,29.32,SSW,202,8.0,11.0,79,0.00,,,0.00,Meteo,2013-01-12 11:58:00,
2013-01-12 06:03:00,39.0,33.0,29.33,SSW,207,8.0,15.0,79,0.00,,,0.00,Meteo,2013-01-12 12:03:00,
2013-01-12 06:08:00,39.0,33.0,29.34,SW,219,4.0,6.0,80,0.00,,,0.00,Meteo,2013-01-12 12:08:00,
2013-01-12 06:13:00,39.0,33.0,29.34,SSW,194,9.0,16.0,80,0.00,,,0.00,Meteo,2013-01-12 12:13:00,
2013-01-12 06:18:00,38.0,32.0,29.34,SSW,208,9.0,14.0,80,0.00,,,0.00,Meteo,2013-01-12 12:18:00,
2013-01-12 06:23:00,38.0,32.0,29.35,SSW,201,8.0,12.0,79,0.00,,,0.00,Meteo,2013-01-12 12:23:00,
2013-01-12 06:28:00,38.0,32.0,29.35,SSW,212,5.0,7.0,80,0.00,,,0.00,Meteo,2013-01-12 12:28:00,
2013-01-12 06:33:00,38.0,32.0,29.35,SSW,206,8.0,12.0,80,0.00,,,0.00,Meteo,2013-01-12 12:33:00,
2013-01-12 06:38:00,38.0,33.0,29.36,SSW,209,9.0,14.0,81,0.00,,,0.00,Meteo,2013-01-12 12:38:00,
2013-01-12 06:43:00,37.0,32.0,29.37,SW,215,6.0,15.0,81,0.00,,,0.00,Meteo,2013-01-12 12:43:00,
2013-01-12 06:48:00,37.0,32.0,29.37,SSW,199,4.0,9.0,82,0.00,,,0.00,Meteo,2013-01-12 12:48:00,
2013-01-12 06:53:00,37.0,32.0,29.38,SSW,210,5.0,8.0,82,0.00,,,0.00,Meteo,2013-01-12 12:53:00,
2013-01-12 06:58:00,37.0,32.0,29.38,SSW,206,8.0,13.0,82,0.00,,,0.00,Meteo,2013-01-12 12:58:00,
2013-01-12 07:03:00,36.0,31.0,29.39,SSW,206,7.0,14.0,82,0.00,,,0.00,Meteo,2013-01-12 13:03:00,
2013-01-12 07:08:00,36.0,30.0,29.39,SSW,202,11.0,20.0,77,0.00,,,0.00,Meteo,2013-01-12 13:08:00,
2013-01-12 07:13:00,36.0,29.0,29.40,SSW,212,11.0,17.0,76,0.00,,,0.00,Meteo,2013-01-12 13:13:00,
2013-01-12 07:18:00,35.0,28.0,29.40,SSW,204,6.0,10.0,76,0.00,,,0.00,Meteo,2013-01-12 13:18:00,
2013-01-12 07:24:00,35.0,28.0,29.41,SSW,207,8.0,16.0,76,0.00,,,0.00,Meteo,2013-01-12 13:24:00,
2013-01-12 07:29:00,35.0,28.0,29.41,SSW,209,11.0,16.0,76,0.00,,,0.00,Meteo,2013-01-12 13:29:00,
2013-01-12 07:34:00,34.0,27.0,29.42,SSW,212,9.0,14.0,76,0.00,,,0.00,Meteo,2013-01-12 13:34:00,
2013-01-12 07:39:00,34.0,27.0,29.43,SSW,198,11.0,18.0,76,0.00,,,0.00,Meteo,2013-01-12 13:39:00,
2013-01-12 07:44:00,33.0,26.0,29.44,SSW,201,8.0,11.0,76,0.00,,,0.00,Meteo,2013-01-12 13:44:00,
2013-01-12 07:49:00,33.0,26.0,29.44,SW,226,12.0,17.0,75,0.00,,,0.00,Meteo,2013-01-12 13:49:00,
2013-01-12 07:54:00,32.0,24.0,29.45,SSW,205,12.0,22.0,72,0.00,,,0.00,Meteo,2013-01-12 13:54:00,
2013-01-12 07:59:00,32.0,24.0,29.46,SSW,211,12.0,20.0,72,0.00,,,0.00,Meteo,2013-01-12 13:59:00,
2013-01-12 08:04:00,31.0,23.0,29.47,SSW,208,10.0,20.0,73,0.00,,,0.00,Meteo,2013-01-12 14:04:00,
2013-01-12 08:09:00,31.0,23.0,29.47,SSW,212,7.0,12.0,72,0.00,,,0.00,Meteo,2013-01-12 14:09:00,
2013-01-12 08:14:00,31.0,23.0,29.48,SSW,212,10.0,17.0,73,0.00,,,0.00,Meteo,2013-01-12 14:14:00,
2013-01-12 08:19:00,30.0,22.0,29.49,SW,216,6.0,10.0,71,0.00,,,0.00,Meteo,2013-01-12 14:19:00,
2013-01-12 08:24:00,29.0,20.0,29.50,SW,219,14.0,23.0,70,0.00,,,0.00,Meteo,2013-01-12 14:24:00,
2013-01-12 08:29:00,29.0,20.0,29.50,SW,229,9.0,14.0,70,0.00,,,0.00,Meteo,2013-01-12 14:29:00,
2013-01-12 08:34:00,28.0,19.0,29.51,SSW,209,11.0,18.0,70,0.00,,,0.00,Meteo,2013-01-12 14:34:00,
2013-01-12 08:39:00,28.0,19.0,29.52,SSW,213,7.0,13.0,70,0.00,,,0.00,Meteo,2013-01-12 14:39:00,
2013-01-12 08:44:00,28.0,19.0,29.52,SSW,211,8.0,14.0,70,0.00,,,0.00,Meteo,2013-01-12 14:44:00,
2013-01-12 08:49:00,28.0,20.0,29.52,SSW,200,6.0,9.0,71,0.00,,,0.00,Meteo,2013-01-12 14:49:00,
2013-01-12 08:54:00,27.0,19.0,29.53,SSW,210,12.0,18.0,70,0.00,,,0.00,Meteo,2013-01-12 14:54:00,
2013-01-12 08:59:00,27.0,18.0,29.53,SSW,213,10.0,13.0,69,0.00,,,0.00,Meteo,2013-01-12 14:59:00,
2013-01-12 09:04:00,27.0,18.0,29.54,SSW,202,11.0,16.0,69,0.00,,,0.00,Meteo,2013-01-12 15:04:00,
2013-01-12 09:09:00,27.0,18.0,29.54,SW,214,11.0,19.0,69,0.00,,,0.00,Meteo,2013-01-12 15:09:00,
2013-01-12 09:14:00,26.0,17.0,29.55,SSW,211,14.0,21.0,69,0.00,,,0.00,Meteo,2013-01-12 15:14:00,
2013-01-12 09:19:00,26.0,17.0,29.55,SSW,199,11.0,16.0,69,0.00,,,0.00,Meteo,2013-01-12 15:19:00,
2013-01-12 09:24:00,26.0,17.0,29.55,SSW,204,8.0,13.0,69,0.00,,,0.00,Meteo,2013-01-12 15:24:00,
2013-01-12 09:29:00,26.0,17.0,29.56,SSW,206,11.0,16.0,69,0.00,,,0.00,Meteo,2013-01-12 15:29:00,
2013-01-12 09:34:00,26.0,17.0,29.56,SSW,204,9.0,12.0,69,0.00,,,0.00,Meteo,2013-01-12 15:34:00,
2013-01-12 09:39:00,26.0,18.0,29.56,SSW,210,7.0,9.0,70,0.00,,,0.00,Meteo,2013-01-12 15:39:00,
2013-01-12 09:44:00,26.0,17.0,29.57,SSW,206,11.0,17.0,69,0.00,,,0.00,Meteo,2013-01-12 15:44:00,
2013-01-12 09:49:00,26.0,18.0,29.57,SSW,205,9.0,14.0,70,0.00,,,0.00,Meteo,2013-01-12 15:49:00,
2013-01-12 09:54:00,26.0,17.0,29.57,SSW,196,9.0,14.0,69,0.00,,,0.00,Meteo,2013-01-12 15:54:00,
2013-01-12 09:59:00,25.0,16.0,29.58,SSW,195,7.0,11.0,69,0.00,,,0.00,Meteo,2013-01-12 15:59:00,
2013-01-12 10:04:00,25.0,16.0,29.59,SSW,213,10.0,16.0,69,0.00,,,0.00,Meteo,2013-01-12 16:04:00,
2013-01-12 10:09:00,25.0,16.0,29.59,SW,218,7.0,12.0,69,0.00,,,0.00,Meteo,2013-01-12 16:09:00,
2013-01-12 10:14:00,25.0,16.0,29.60,SSW,207,9.0,15.0,69,0.00,,,0.00,Meteo,2013-01-12 16:14:00,
2013-01-12 10:19:00,25.0,16.0,29.60,SSW,208,7.0,14.0,69,0.00,,,0.00,Meteo,2013-01-12 16:19:00,
2013-01-12 10:24:00,25.0,16.0,29.60,SSW,198,4.0,5.0,69,0.00,,,0.00,Meteo,2013-01-12 16:24:00,
2013-01-12 10:29:00,25.0,16.0,29.61,SSW,209,11.0,21.0,69,0.00,,,0.00,Meteo,2013-01-12 16:29:00,
2013-01-12 10:34:00,24.0,15.0,29.61,SSW,193,8.0,15.0,69,0.00,,,0.00,Meteo,2013-01-12 16:34:00,
2013-01-12 10:39:00,24.0,15.0,29.61,SSW,210,7.0,11.0,69,0.00,,,0.00,Meteo,2013-01-12 16:39:00,
2013-01-12 10:44:00,24.0,15.0,29.62,SSW,199,11.0,19.0,69,0.00,,,0.00,Meteo,2013-01-12 16:44:00,
2013-01-12 10:49:00,24.0,15.0,29.62,SSW,200,10.0,22.0,68,0.00,,,0.00,Meteo,2013-01-12 16:49:00,
2013-01-12 10:54:00,23.0,14.0,29.62,SSW,193,7.0,10.0,69,0.00,,,0.00,Meteo,2013-01-12 16:54:00,
2013-01-12 10:59:00,23.0,14.0,29.63,SSW,210,8.0,15.0,69,0.00,,,0.00,Meteo,2013-01-12 16:59:00,
2013-01-12 11:04:00,23.0,15.0,29.64,SSW,200,9.0,16.0,70,0.00,,,0.00,Meteo,2013-01-12 17:04:00,
2013-01-12 11:09:00,23.0,15.0,29.64,SSW,205,9.0,14.0,70,0.00,,,0.00,Meteo,2013-01-12 17:09:00,
2013-01-12 11:15:00,23.0,14.0,29.65,SSW,210,8.0,15.0,68,0.00,,,0.00,Meteo,2013-01-12 17:15:00,
2013-01-12 11:20:00,23.0,14.0,29.65,SSW,198,9.0,14.0,67,0.00,,,0.00,Meteo,2013-01-12 17:20:00,
2013-01-12 11:25:00,23.0,14.0,29.65,SSW,200,7.0,16.0,68,0.00,,,0.00,Meteo,2013-01-12 17:25:00,
2013-01-12 11:30:00,23.0,14.0,29.66,SSW,207,11.0,17.0,68,0.00,,,0.00,Meteo,2013-01-12 17:30:00,
2013-01-12 11:35:00,22.0,13.0,29.66,SW,216,5.0,8.0,68,0.00,,,0.00,Meteo,2013-01-12 17:35:00,
2013-01-12 11:40:00,23.0,14.0,29.67,SSW,201,9.0,15.0,69,0.00,,,0.00,Meteo,2013-01-12 17:40:00,
2013-01-12 11:45:00,22.0,13.0,29.67,SSW,208,10.0,16.0,68,0.00,,,0.00,Meteo,2013-01-12 17:45:00,
2013-01-12 11:50:00,22.0,13.0,29.67,SSW,209,10.0,18.0,68,0.00,,,0.00,Meteo,2013-01-12 17:50:00,
2013-01-12 11:55:00,22.0,13.0,29.68,SSW,197,8.0,14.0,67,0.00,,,0.00,Meteo,2013-01-12 17:55:00,
2013-01-12 12:01:00,22.0,13.0,29.68,SSW,201,10.0,17.0,67,0.00,,,0.00,Meteo,2013-01-12 18:01:00,
2013-01-12 12:06:00,22.0,13.0,29.68,SSW,210,11.0,24.0,67,0.00,,,0.00,Meteo,2013-01-12 18:06:00,
2013-01-12 12:11:00,22.0,13.0,29.68,SW,219,7.0,12.0,67,0.00,,,0.00,Meteo,2013-01-12 18:11:00,
2013-01-12 12:16:00,22.0,13.0,29.68,SSW,206,11.0,17.0,67,0.00,,,0.00,Meteo,2013-01-12 18:16:00,
2013-01-12 12:21:00,22.0,12.0,29.69,SSW,209,8.0,10.0,66,0.00,,,0.00,Meteo,2013-01-12 18:21:00,
2013-01-12 12:26:00,22.0,12.0,29.69,SSW,205,6.0,8.0,66,0.00,,,0.00,Meteo,2013-01-12 18:26:00,
2013-01-12 12:31:00,22.0,13.0,29.69,SSW,202,8.0,18.0,67,0.00,,,0.00,Meteo,2013-01-12 18:31:00,
2013-01-12 12:36:00,22.0,12.0,29.69,South,184,7.0,12.0,66,0.00,,,0.00,Meteo,2013-01-12 18:36:00,
2013-01-12 12:41:00,22.0,12.0,29.69,SSW,200,5.0,11.0,65,0.00,,,0.00,Meteo,2013-01-12 18:41:00,
2013-01-12 12:47:00,22.0,12.0,29.70,SSW,204,8.0,13.0,66,0.00,,,0.00,Meteo,2013-01-12 18:47:00,
2013-01-12 12:52:00,22.0,12.0,29.70,SSW,207,9.0,12.0,65,0.00,,,0.00,Meteo,2013-01-12 18:52:00,
2013-01-12 12:57:00,22.0,12.0,29.70,SSW,202,5.0,13.0,65,0.00,,,0.00,Meteo,2013-01-12 18:57:00,
2013-01-12 13:02:00,22.0,12.0,29.70,SSW,201,7.0,11.0,65,0.00,,,0.00,Meteo,2013-01-12 19:02:00,
2013-01-12 13:07:00,22.0,12.0,29.71,SW,215,10.0,15.0,65,0.00,,,0.00,Meteo,2013-01-12 19:07:00,
2013-01-12 13:12:00,22.0,12.0,29.71,SSW,205,6.0,13.0,64,0.00,,,0.00,Meteo,2013-01-12 19:12:00,
2013-01-12 13:17:00,22.0,12.0,29.72,SSW,204,8.0,18.0,65,0.00,,,0.00,Meteo,2013-01-12 19:17:00,
2013-01-12 13:22:00,22.0,12.0,29.72,SSW,202,9.0,16.0,64,0.00,,,0.00,Meteo,2013-01-12 19:22:00,
2013-01-12 13:27:00,22.0,11.0,29.72,SSW,203,6.0,10.0,63,0.00,,,0.00,Meteo,2013-01-12 19:27:00,
2013-01-12 13:32:00,22.0,11.0,29.73,SSW,198,7.0,11.0,63,0.00,,,0.00,Meteo,2013-01-12 19:32:00,
2013-01-12 13:37:00,22.0,11.0,29.73,SSW,205,5.0,7.0,62,0.00,,,0.00,Meteo,2013-01-12 19:37:00,
2013-01-12 13:42:00,22.0,11.0,29.73,SSW,205,8.0,11.0,62,0.00,,,0.00,Meteo,2013-01-12 19:42:00,
2013-01-12 13:47:00,22.0,11.0,29.73,WSW,243,7.0,13.0,62,0.00,,,0.00,Meteo,2013-01-12 19:47:00,
2013-01-12 13:52:00,22.0,11.0,29.74,SSW,209,6.0,11.0,62,0.00,,,0.00,Meteo,2013-01-12 19:52:00,
2013-01-12 13:57:00,22.0,11.0,29.75,SW,234,3.0,6.0,62,0.00,,,0.00,Meteo,2013-01-12 19:57:00,
2013-01-12 14:02:00,21.0,9.7,29.75,SSW,213,5.0,7.0,61,0.00,,,0.00,Meteo,2013-01-12 20:02:00,
2013-01-12 14:07:00,21.0,10.0,29.76,South,190,5.0,8.0,62,0.00,,,0.00,Meteo,2013-01-12 20:07:00,
2013-01-12 14:12:00,21.0,9.7,29.76,SSW,213,5.0,11.0,61,0.00,,,0.00,Meteo,2013-01-12 20:12:00,
2013-01-12 14:17:00,21.0,10.0,29.77,South,191,6.0,12.0,62,0.00,,,0.00,Meteo,2013-01-12 20:17:00,
2013-01-12 14:22:00,21.0,9.7,29.78,SSW,195,6.0,13.0,61,0.00,,,0.00,Meteo,2013-01-12 20:22:00,
2013-01-12 14:27:00,21.0,9.7,29.78,SSW,208,7.0,9.0,61,0.00,,,0.00,Meteo,2013-01-12 20:27:00,
2013-01-12 14:32:00,21.0,9.7,29.79,SSW,211,8.0,12.0,61,0.00,,,0.00,Meteo,2013-01-12 20:32:00,
2013-01-12 14:37:00,21.0,9.7,29.79,SSW,199,8.0,15.0,61,0.00,,,0.00,Meteo,2013-01-12 20:37:00,
2013-01-12 14:42:00,21.0,9.7,29.79,SSW,207,8.0,14.0,61,0.00,,,0.00,Meteo,2013-01-12 20:42:00,
2013-01-12 14:47:00,21.0,9.7,29.79,SSW,200,4.0,7.0,61,0.00,,,0.00,Meteo,2013-01-12 20:47:00,
2013-01-12 14:52:00,20.0,8.7,29.80,SSW,211,5.0,9.0,61,0.00,,,0.00,Meteo,2013-01-12 20:52:00,
2013-01-12 14:57:00,20.0,9.1,29.80,SSW,198,6.0,10.0,62,0.00,,,0.00,Meteo,2013-01-12 20:57:00,
2013-01-12 15:02:00,20.0,8.4,29.80,SSW,206,6.0,11.0,60,0.00,,,0.00,Meteo,2013-01-12 21:02:00,
2013-01-12 15:07:00,20.0,8.4,29.80,South,187,7.0,13.0,60,0.00,,,0.00,Meteo,2013-01-12 21:07:00,
2013-01-12 15:12:00,20.0,8.7,29.80,SW,223,8.0,16.0,61,0.00,,,0.00,Meteo,2013-01-12 21:12:00,
2013-01-12 15:17:00,20.0,8.7,29.81,SSW,207,7.0,12.0,61,0.00,,,0.00,Meteo,2013-01-12 21:17:00,
2013-01-12 15:22:00,20.0,8.4,29.80,SSW,208,7.0,10.0,60,0.00,,,0.00,Meteo,2013-01-12 21:22:00,
2013-01-12 15:27:00,19.0,7.8,29.81,SSW,213,7.0,11.0,61,0.00,,,0.00,Meteo,2013-01-12 21:27:00,
2013-01-12 15:32:00,19.0,7.8,29.81,SSW,195,7.0,9.0,61,0.00,,,0.00,Meteo,2013-01-12 21:32:00,
2013-01-12 15:37:00,19.0,7.4,29.81,SSW,207,6.0,13.0,60,0.00,,,0.00,Meteo,2013-01-12 21:37:00,
2013-01-12 15:42:00,19.0,7.8,29.82,South,188,6.0,8.0,61,0.00,,,0.00,Meteo,2013-01-12 21:42:00,
2013-01-12 15:47:00,19.0,7.8,29.82,South,186,8.0,11.0,61,0.00,,,0.00,Meteo,2013-01-12 21:47:00,
2013-01-12 15:52:00,19.0,7.8,29.82,SSW,193,5.0,10.0,61,0.00,,,0.00,Meteo,2013-01-12 21:52:00,
2013-01-12 15:57:00,19.0,7.8,29.82,SW,215,4.0,8.0,61,0.00,,,0.00,Meteo,2013-01-12 21:57:00,
2013-01-12 16:02:00,19.0,7.8,29.82,SW,215,5.0,9.0,61,0.00,,,0.00,Meteo,2013-01-12 22:02:00,
2013-01-12 16:07:00,19.0,7.8,29.83,SSW,209,9.0,12.0,61,0.00,,,0.00,Meteo,2013-01-12 22:07:00,
2013-01-12 16:12:00,19.0,7.8,29.83,SSW,197,6.0,7.0,61,0.00,,,0.00,Meteo,2013-01-12 22:12:00,
2013-01-12 16:17:00,18.0,7.2,29.83,SSW,209,4.0,9.0,62,0.00,,,0.00,Meteo,2013-01-12 22:17:00,
2013-01-12 16:22:00,18.0,7.2,29.84,SSW,192,6.0,11.0,62,0.00,,,0.00,Meteo,2013-01-12 22:22:00,
2013-01-12 16:27:00,18.0,7.2,29.84,SSW,212,8.0,12.0,62,0.00,,,0.00,Meteo,2013-01-12 22:27:00,
2013-01-12 16:32:00,18.0,7.2,29.85,SW,219,7.0,10.0,62,0.00,,,0.00,Meteo,2013-01-12 22:32:00,
2013-01-12 16:37:00,18.0,7.2,29.85,SSW,204,5.0,14.0,62,0.00,,,0.00,Meteo,2013-01-12 22:37:00,
2013-01-12 16:42:00,18.0,7.2,29.85,SSW,207,6.0,13.0,62,0.00,,,0.00,Meteo,2013-01-12 22:42:00,
2013-01-12 16:47:00,18.0,7.2,29.85,SSW,209,7.0,12.0,62,0.00,,,0.00,Meteo,2013-01-12 22:47:00,
2013-01-12 16:52:00,18.0,7.2,29.85,SSW,209,7.0,15.0,62,0.00,,,0.00,Meteo,2013-01-12 22:52:00,
2013-01-12 16:57:00,18.0,7.2,29.85,SSW,208,4.0,8.0,62,0.00,,,0.00,Meteo,2013-01-12 22:57:00,
2013-01-12 17:02:00,18.0,7.5,29.84,SW,223,3.0,6.0,63,0.00,,,0.00,Meteo,2013-01-12 23:02:00,
2013-01-12 17:07:00,18.0,7.5,29.84,SW,227,5.0,7.0,63,0.00,,,0.00,Meteo,2013-01-12 23:07:00,
2013-01-12 17:12:00,17.0,6.6,29.84,SSW,203,8.0,12.0,63,0.00,,,0.00,Meteo,2013-01-12 23:12:00,
2013-01-12 17:17:00,17.0,6.9,29.85,SSW,211,6.0,11.0,64,0.00,,,0.00,Meteo,2013-01-12 23:17:00,
2013-01-12 17:22:00,17.0,6.9,29.86,SSW,209,4.0,5.0,64,0.00,,,0.00,Meteo,2013-01-12 23:22:00,
2013-01-12 17:27:00,17.0,7.3,29.86,SSW,199,4.0,10.0,65,0.00,,,0.00,Meteo,2013-01-12 23:27:00,
2013-01-12 17:32:00,17.0,7.3,29.87,SSW,205,5.0,11.0,65,0.00,,,0.00,Meteo,2013-01-12 23:32:00,
2013-01-12 17:37:00,17.0,7.3,29.88,SSW,195,7.0,10.0,65,0.00,,,0.00,Meteo,2013-01-12 23:37:00,
2013-01-12 17:42:00,17.0,7.3,29.88,SSW,199,5.0,8.0,65,0.00,,,0.00,Meteo,2013-01-12 23:42:00,
2013-01-12 17:47:00,17.0,7.3,29.88,SSW,213,8.0,11.0,65,0.00,,,0.00,Meteo,2013-01-12 23:47:00,
2013-01-12 17:52:00,17.0,7.3,29.88,SSW,202,4.0,7.0,65,0.00,,,0.00,Meteo,2013-01-12 23:52:00,
2013-01-12 17:57:00,17.0,7.6,29.88,SW,227,4.0,8.0,66,0.00,,,0.00,Meteo,2013-01-12 23:57:00,
2013-01-12 18:02:00,17.0,7.6,29.89,SW,214,4.0,6.0,66,0.00,,,0.00,Meteo,2013-01-13 00:02:00,
2013-01-12 18:07:00,17.0,7.6,29.90,WSW,240,2.0,5.0,66,0.00,,,0.00,Meteo,2013-01-13 00:07:00,
2013-01-12 18:12:00,17.0,7.3,29.90,SW,231,3.0,4.0,65,0.00,,,0.00,Meteo,2013-01-13 00:12:00,
2013-01-12 18:17:00,17.0,7.3,29.91,SSW,205,1.0,2.0,65,0.00,,,0.00,Meteo,2013-01-13 00:17:00,
2013-01-12 18:22:00,17.0,7.6,29.91,WNW,285,1.0,5.0,66,0.00,,,0.00,Meteo,2013-01-13 00:22:00,
2013-01-12 18:27:00,17.0,9.5,29.91,NW,312,1.0,3.0,72,0.00,,,0.00,Meteo,2013-01-13 00:27:00,
2013-01-12 18:32:00,17.0,10.0,29.91,WSW,237,3.0,6.0,75,0.00,,,0.00,Meteo,2013-01-13 00:32:00,
2013-01-12 18:37:00,16.0,9.8,29.92,SW,214,2.0,5.0,76,0.00,,,0.00,Meteo,2013-01-13 00:37:00,
2013-01-12 18:42:00,16.0,10.0,29.92,SW,228,4.0,6.0,77,0.00,,,0.00,Meteo,2013-01-13 00:42:00,
2013-01-12 18:47:00,16.0,10.0,29.92,SW,214,4.0,5.0,77,0.00,,,0.00,Meteo,2013-01-13 00:47:00,
2013-01-12 18:52:00,15.0,9.4,29.92,SW,215,2.0,5.0,78,0.00,,,0.00,Meteo,2013-01-13 00:52:00,
2013-01-12 18:57:00,15.0,9.4,29.91,WSW,240,2.0,5.0,78,0.00,,,0.00,Meteo,2013-01-13 00:57:00,
2013-01-12 19:02:00,15.0,9.4,29.91,SW,220,3.0,5.0,78,0.00,,,0.00,Meteo,2013-01-13 01:02:00,
2013-01-12 19:07:00,15.0,9.4,29.91,SSW,199,3.0,5.0,78,0.00,,,0.00,Meteo,2013-01-13 01:07:00,
2013-01-12 19:12:00,15.0,9.4,29.91,SW,225,2.0,4.0,78,0.00,,,0.00,Meteo,2013-01-13 01:12:00,
2013-01-12 19:17:00,15.0,9.4,29.91,SW,227,3.0,4.0,78,0.00,,,0.00,Meteo,2013-01-13 01:17:00,
2013-01-12 19:22:00,15.0,9.4,29.91,SSW,203,3.0,6.0,78,0.00,,,0.00,Meteo,2013-01-13 01:22:00,
2013-01-12 19:27:00,15.0,9.4,29.91,SW,226,1.0,2.0,78,0.00,,,0.00,Meteo,2013-01-13 01:27:00,
2013-01-12 19:32:00,15.0,9.4,29.91,SW,220,2.0,4.0,78,0.00,,,0.00,Meteo,2013-01-13 01:32:00,
2013-01-12 19:37:00,15.0,9.4,29.91,SW,223,2.0,4.0,78,0.00,,,0.00,Meteo,2013-01-13 01:37:00,
2013-01-12 19:42:00,15.0,9.4,29.91,SSW,211,1.0,3.0,78,0.00,,,0.00,Meteo,2013-01-13 01:42:00,
2013-01-12 19:47:00,15.0,9.1,29.92,SW,215,2.0,4.0,77,0.00,,,0.00,Meteo,2013-01-13 01:47:00,
2013-01-12 19:52:00,15.0,8.8,29.91,SW,233,1.0,5.0,76,0.00,,,0.00,Meteo,2013-01-13 01:52:00,
2013-01-12 19:57:00,15.0,8.8,29.91,SW,217,1.0,4.0,76,0.00,,,0.00,Meteo,2013-01-13 01:57:00,
2013-01-12 20:02:00,15.0,8.5,29.90,SSW,205,5.0,7.0,75,0.00,,,0.00,Meteo,2013-01-13 02:02:00,
2013-01-12 20:07:00,15.0,8.5,29.91,SSW,205,3.0,4.0,75,0.00,,,0.00,Meteo,2013-01-13 02:07:00,
2013-01-12 20:12:00,15.0,8.8,29.91,SSW,209,3.0,9.0,76,0.00,,,0.00,Meteo,2013-01-13 02:12:00,
2013-01-12 20:17:00,15.0,8.5,29.92,SSW,203,3.0,7.0,75,0.00,,,0.00,Meteo,2013-01-13 02:17:00,
2013-01-12 20:22:00,15.0,8.5,29.92,SSW,207,3.0,6.0,75,0.00,,,0.00,Meteo,2013-01-13 02:22:00,
2013-01-12 20:27:00,15.0,8.5,29.92,SW,214,2.0,4.0,75,0.00,,,0.00,Meteo,2013-01-13 02:27:00,
2013-01-12 20:32:00,15.0,8.5,29.92,SSW,201,1.0,3.0,75,0.00,,,0.00,Meteo,2013-01-13 02:32:00,
2013-01-12 20:37:00,15.0,8.5,29.92,SSW,198,3.0,7.0,75,0.00,,,0.00,Meteo,2013-01-13 02:37:00,
2013-01-12 20:42:00,15.0,8.2,29.92,SSW,210,2.0,3.0,74,0.00,,,0.00,Meteo,2013-01-13 02:42:00,
2013-01-12 20:47:00,15.0,7.9,29.94,SSW,208,3.0,7.0,73,0.00,,,0.00,Meteo,2013-01-13 02:47:00,
2013-01-12 20:52:00,15.0,7.9,29.94,SSW,194,3.0,6.0,73,0.00,,,0.00,Meteo,2013-01-13 02:52:00,
2013-01-12 20:57:00,15.0,7.6,29.94,South,191,3.0,6.0,72,0.00,,,0.00,Meteo,2013-01-13 02:57:00,
2013-01-12 21:02:00,15.0,7.3,29.93,SSW,202,3.0,5.0,71,0.00,,,0.00,Meteo,2013-01-13 03:02:00,
2013-01-12 21:07:00,15.0,7.3,29.93,SW,215,3.0,6.0,71,0.00,,,0.00,Meteo,2013-01-13 03:07:00,
2013-01-12 21:12:00,15.0,7.3,29.93,SW,217,4.0,6.0,71,0.00,,,0.00,Meteo,2013-01-13 03:12:00,
2013-01-12 21:17:00,15.0,7.6,29.93,SW,215,4.0,8.0,72,0.00,,,0.00,Meteo,2013-01-13 03:17:00,
2013-01-12 21:22:00,15.0,7.3,29.92,WSW,243,2.0,4.0,71,0.00,,,0.00,Meteo,2013-01-13 03:22:00,
2013-01-12 21:27:00,15.0,7.3,29.93,SSW,205,3.0,5.0,71,0.00,,,0.00,Meteo,2013-01-13 03:27:00,
2013-01-12 21:32:00,15.0,7.3,29.93,SW,215,3.0,5.0,71,0.00,,,0.00,Meteo,2013-01-13 03:32:00,
2013-01-12 21:37:00,15.0,7.0,29.93,WSW,258,2.0,4.0,70,0.00,,,0.00,Meteo,2013-01-13 03:37:00,
2013-01-12 21:42:00,15.0,7.0,29.93,WSW,240,3.0,5.0,70,0.00,,,0.00,Meteo,2013-01-13 03:42:00,
2013-01-12 21:47:00,15.0,7.0,29.93,SW,223,2.0,4.0,70,0.00,,,0.00,Meteo,2013-01-13 03:47:00,
2013-01-12 21:52:00,15.0,7.3,29.94,SSW,208,3.0,5.0,71,0.00,,,0.00,Meteo,2013-01-13 03:52:00,
2013-01-12 21:57:00,15.0,7.0,29.95,SSW,211,3.0,4.0,70,0.00,,,0.00,Meteo,2013-01-13 03:57:00,
2013-01-12 22:02:00,15.0,7.0,29.95,SW,214,4.0,5.0,70,0.00,,,0.00,Meteo,2013-01-13 04:02:00,
2013-01-12 22:08:00,15.0,7.0,29.95,SW,220,2.0,4.0,70,0.00,,,0.00,Meteo,2013-01-13 04:08:00,
2013-01-12 22:13:00,15.0,6.7,29.95,WSW,241,4.0,8.0,69,0.00,,,0.00,Meteo,2013-01-13 04:13:00,
2013-01-12 22:18:00,15.0,6.7,29.95,SSW,199,2.0,4.0,69,0.00,,,0.00,Meteo,2013-01-13 04:18:00,
2013-01-12 22:23:00,15.0,7.0,29.95,SSW,208,2.0,5.0,70,0.00,,,0.00,Meteo,2013-01-13 04:23:00,
2013-01-12 22:28:00,15.0,7.0,29.96,SW,230,2.0,4.0,70,0.00,,,0.00,Meteo,2013-01-13 04:28:00,
2013-01-12 22:33:00,15.0,7.0,29.95,SW,217,1.0,2.0,70,0.00,,,0.00,Meteo,2013-01-13 04:33:00,
2013-01-12 22:38:00,15.0,7.0,29.95,SSW,213,4.0,6.0,70,0.00,,,0.00,Meteo,2013-01-13 04:38:00,
2013-01-12 22:43:00,15.0,6.7,29.96,SW,225,3.0,5.0,69,0.00,,,0.00,Meteo,2013-01-13 04:43:00,
2013-01-12 22:48:00,15.0,6.7,29.96,SSW,203,1.0,1.0,69,0.00,,,0.00,Meteo,2013-01-13 04:48:00,
2013-01-12 22:53:00,15.0,6.7,29.96,SW,235,2.0,6.0,69,0.00,,,0.00,Meteo,2013-01-13 04:53:00,
2013-01-12 22:58:00,15.0,6.4,29.96,WSW,254,1.0,1.0,68,0.00,,,0.00,Meteo,2013-01-13 04:58:00,
2013-01-12 22:59:00,15.0,6.0,29.95,WSW,256,2.0,4.0,67,0.00,,,0.00,Meteo,2013-01-13 04:59:00,
2013-01-12 23:00:00,15.0,6.0,29.95,WSW,256,2.0,4.0,67,0.00,,,0.00,Meteo,2013-01-13 05:00:00,
2013-01-12 23:16:00,15.0,5.7,29.95,West,263,1.0,2.0,66,0.00,,,0.00,Meteo,2013-01-13 05:16:00,
2013-01-12 23:17:00,15.0,5.4,29.95,WSW,252,2.0,5.0,65,0.00,,,0.00,Meteo,2013-01-13 05:17:00,
2013-01-12 23:19:00,15.0,5.4,29.95,WSW,252,2.0,3.0,65,0.00,,,0.00,Meteo,2013-01-13 05:19:00,
2013-01-12 23:24:00,15.0,5.0,29.96,WNW,290,1.0,5.0,64,0.00,,,0.00,Meteo,2013-01-13 05:24:00,
2013-01-12 23:29:00,15.0,5.0,29.95,West,264,2.0,4.0,64,0.00,,,0.00,Meteo,2013-01-13 05:29:00,
2013-01-12 23:34:00,14.0,4.4,29.95,WNW,289,2.0,5.0,65,0.00,,,0.00,Meteo,2013-01-13 05:34:00,
2013-01-12 23:39:00,14.0,4.1,29.96,SW,235,2.0,5.0,64,0.00,,,0.00,Meteo,2013-01-13 05:39:00,
2013-01-12 23:44:00,14.0,4.4,29.96,WNW,290,1.0,3.0,65,0.00,,,0.00,Meteo,2013-01-13 05:44:00,
2013-01-12 23:49:00,14.0,4.4,29.96,WSW,258,2.0,4.0,65,0.00,,,0.00,Meteo,2013-01-13 05:49:00,
2013-01-12 23:54:00,14.0,4.1,29.96,WSW,256,3.0,5.0,64,0.00,,,0.00,Meteo,2013-01-13 05:54:00,
2013-01-12 23:59:00,14.0,4.7,29.95,SW,235,1.0,2.0,66,0.00,,,0.00,Meteo,2013-01-13 05:59:00,